sat.trackr.live / text

‹ back to catalog

STARLINK-11079 [DTC]

NORAD 58708 · 2024-002D

PAYLOAD ACTIVE UNKNOWN

§ Identity

Operator
Country
US
Launch date
2024-01-03
Launch site
AFWTR
Launch vehicle
Mass (kg)
RCS (m²)

Purposes: comms

External: N2YO · Heavens-Above · Gunter

§ Orbital elements

Epoch: 2026-09-20T20:54:19.663488Z

Period
91.74 min
Inclination
53.1566°
Eccentricity
0.0001351
Mean motion
15.69713082 rev/d
Perigee alt
358.8 km
Apogee alt
360.6 km
Semi-major
6,737.9 km
B*
-8.4785e-7
RAAN
31.7799°
Arg perigee
105.6098°
Mean anomaly
254.5069°
Rev number
15,709

§ Raw data

STARLINK-11079 [DTC]1 58708U 24002D   26263.87106092 -.00000692  00000+0 -84785-6 0  99942 58708  53.1566  31.7799 0001351 105.6098 254.5069 15.69713082157096

JSON: /api/v1/satellites/58708 · /tle

For live sub-satellite position, see the globe view (requires WebGL).

§ Visibility from observer

Set your observer location to see the next 7 days of passes ≥ 10°. The values pass through the URL so the page stays shareable.

No JS? Fill the form by hand. The geolocation button needs JavaScript.